FW3274 Weather Reports


Display with metric or nautical units.
time (UTC)temp
F
wind
direction
speed
MPH
gust
MPH
rain 1hr
in
rain 24hr
in
rain mn
in
humidity
%
barometer
mb
20260504100105 75 88 0.0 0.0 0.00 0.00 0.00 40 1014.2
20260504081548 70 59 0.0 0.0 0.00 0.00 0.00 42 1014.6
20260504050019 59 72 0.0 0.0 0.00 0.00 0.00 60 1013.7
20260504044517 58 58 0.0 0.0 0.00 0.00 0.00 60 1013.6
20260504043021 57 57 0.0 0.0 0.00 0.00 0.00 63 1013.5
20260504041513 57 74 0.0 0.0 0.00 0.00 0.00 63 1013.4
20260504040012 57 73 0.0 0.0 0.00 0.00 0.00 62 1013.4
20260504034511 57 73 0.0 0.0 0.00 0.00 0.00 62 1013.4
20260504033010 57 79 0.0 0.0 0.00 0.00 0.00 62 1013.6
20260504031510 57 79 0.0 0.0 0.00 0.00 0.00 63 1013.5
20260504030009 56 90 0.0 0.0 0.00 0.00 0.00 66 1013.5
20260504024508 57 92 0.0 0.0 0.00 0.00 0.00 66 1013.5
20260504023007 57 92 0.0 0.0 0.00 0.00 0.00 65 1013.6
20260504021510 57 92 0.0 0.0 0.00 0.00 0.00 65 1013.6
20260504020008 57 92 0.0 0.0 0.00 0.00 0.00 65 1013.5
20260504014504 58 92 0.0 0.0 0.00 0.00 0.00 65 1013.5
20260504013005 58 92 0.0 0.0 0.00 0.00 0.00 63 1013.5
20260504011502 58 93 0.0 0.0 0.00 0.00 0.00 63 1013.6
20260504004601 58 93 0.0 0.0 0.00 0.00 0.00 62 1013.7
20260504003057 59 93 0.0 0.0 0.00 0.00 0.00 61 1013.7
20260504001606 59 93 0.0 0.0 0.00 0.00 0.00 61 1013.7
20260504000058 59 93 0.0 0.0 0.00 0.00 0.00 61 1013.8
20260503234555 59 93 0.0 0.0 0.00 0.00 0.00 61 1013.9
20260503233100 59 93 0.0 0.0 0.00 0.00 0.00 61 1014.0
20260503231556 59 93 0.0 0.0 0.00 0.00 0.00 61 1014.0
20260503230053 59 93 0.0 0.0 0.00 0.00 0.00 61 1014.1
20260503224552 59 93 0.0 0.0 0.00 0.00 0.00 60 1014.1
20260503223051 59 93 0.0 0.0 0.00 0.00 0.00 60 1014.1
20260503221550 59 93 0.0 0.0 0.00 0.00 0.00 59 1013.9
20260503220049 59 93 0.0 0.0 0.00 0.00 0.00 58 1014.0
20260503214559 59 93 0.0 0.0 0.00 0.00 0.00 59 1014.0
20260503213049 59 93 0.0 0.0 0.00 0.00 0.00 59 1014.0
20260503211553 60 93 0.0 0.0 0.00 0.00 0.00 58 1014.0
20260503210047 61 93 0.0 0.0 0.00 0.00 0.00 57 1014.0
20260503204554 61 93 0.0 0.0 0.00 0.00 0.00 55 1013.9
20260503203050 62 93 0.0 0.0 0.00 0.00 0.00 55 1013.9
20260503201546 62 93 0.0 0.0 0.00 0.00 0.00 54 1013.9
20260503200045 63 93 0.0 0.0 0.00 0.00 0.00 54 1013.9
20260503194547 64 93 0.0 0.0 0.00 0.00 0.00 53 1013.9
20260503193057 64 93 0.0 0.0 0.00 0.00 0.00 52 1013.9
20260503191545 65 93 0.0 0.0 0.00 0.00 0.00 52 1013.7
20260503190100 65 93 0.0 0.0 0.00 0.00 0.00 49 1013.4
20260503184543 67 93 0.0 0.0 0.00 0.00 0.00 47 1013.3
20260503183142 67 93 0.0 0.0 0.00 0.00 0.00 44 1013.2
20260503181542 68 93 0.0 0.0 0.00 0.00 0.00 43 1013.1
20260503180052 69 93 0.0 0.0 0.00 0.00 0.00 41 1013.0
20260503174540 70 93 0.0 0.0 0.00 0.00 0.00 40 1013.0
20260503173101 71 91 0.0 0.0 0.00 0.00 0.00 37 1012.9
20260503171548 72 90 0.0 0.0 0.00 0.00 0.00 37 1012.8